Flag for Brazil Weather past 2 weeks in Recife, Pernambuco, Brazil

Now
79 °F

Passing clouds.


Feels Like: 82 °F
Forecast: N/A
Wind: 8 mph from Southeast

Location: Recife Aeroporto

Current Time: Sep 30, 2014 at 8:11:55 PM

Latest Report: Sep 30, 2014 at 7:00 PM


Visibility: N/A

Pressure: 29.98 "Hg

Humidity: 79%

Dew point: 72 °F

Location of RecifeLocation

Historic Weather in Recife — Graph

°F

Recife temperature yesterday

Maximum temperature yesterday: 84 °F (at 12:00 PM)
Minimum temperature yesterday: 75 °F (at 6:00 AM)
Average temperature yesterday: 79 °F

Past Weeks' High & Low Weather Summary

 TemperatureHumidityPressure
High84 °F (Sep 22, 12:00 PM)94% (Sep 15, 7:00 PM)30.07 "Hg (Sep 15, 7:00 PM)
Low72 °F (Sep 17, 4:00 AM)61% (Sep 16, 9:00 PM)29.92 "Hg (Sep 19, 2:00 AM)
Average79 °F77%30.00 "Hg
* Reported Sep 15 7:00 PM — Sep 30 7:00 PM, Recife, Weather by CustomWeather, © 2014

Note: Actual official high and low records may vary slightly from our data, if they occured in-between our weather recording intervals... More about our weather records

Advertising

Recife weather history for previous 24 hours

 ConditionsComfort  
Time TempWeatherWind HumidityBarometerVisibility
7:00 PM
Sep 30
79 °FPassing clouds.8 mph79%29.98 "HgN/A
6:00 PM79 °FPassing clouds.8 mph79%29.95 "HgN/A
5:00 PM79 °FScattered clouds.9 mph79%29.95 "HgN/A
4:00 PM81 °FScattered clouds.9 mph74%29.95 "HgN/A
3:00 PM81 °FPartly sunny.12 mph74%29.92 "HgN/A
2:00 PM82 °FPartly sunny.12 mph74%29.92 "HgN/A
1:00 PM82 °FPartly sunny.13 mph74%29.95 "HgN/A
12:00 PM84 °FScattered clouds.14 mph74%29.98 "HgN/A
11:00 AM81 °FScattered clouds.13 mph79%30.01 "HgN/A
10:00 AM82 °FScattered clouds.13 mph74%30.01 "HgN/A
9:00 AM82 °FScattered clouds.13 mph74%30.04 "HgN/A
8:00 AM82 °FScattered clouds.14 mph70%30.04 "HgN/A
7:00 AM79 °FPartly sunny.15 mph79%30.01 "HgN/A
6:00 AM79 °FPartly sunny.14 mph79%30.01 "HgN/A
5:00 AM77 °FPassing clouds.7 mph83%29.98 "HgN/A
4:00 AM77 °FPartly cloudy.13 mph83%29.98 "HgN/A
3:00 AM77 °FPassing clouds.13 mph79%29.98 "HgN/A
2:00 AM77 °FPartly cloudy.13 mph83%29.98 "HgN/A
1:00 AM77 °FPassing clouds.13 mph83%29.98 "HgN/A
12:00 AM77 °FPassing clouds.12 mph83%30.01 "HgN/A
11:00 PM
Sep 29
79 °FPassing clouds.9 mph79%30.01 "HgN/A
10:00 PM79 °FPassing clouds.13 mph74%30.04 "HgN/A
9:00 PM79 °FPassing clouds.13 mph79%30.01 "HgN/A
8:00 PM79 °FPassing clouds.12 mph79%30.01 "HgN/A
Weather by CustomWeather, © 2014

See weather overviewHow to use our weather pages